NEXTSAT-2

导读 | 星芒AI

NEXTSAT-2 是一颗由韩国中小企业NextSpace研发的微型卫星,主要用于验证卫星通信、导航和地球观测技术。该卫星于2023年发射,重量约为10公斤,采用立方星(CubeSat)标准设计。NEXTSAT-2 的主要任务包括测试自主轨道控制、数据中继和图像采集能力,旨在推动韩国商业航天产业的发展。该项目展示了韩国在小型卫星研发和应用方面的技术进步,为未来更复杂的卫星任务奠定基础。

基本信息
目录编号:
56743
目录名称:
NEXTSAT-2
国际标识:
2023-072A
轨道中心:
EARTH
卫星名称:
NEXTSAT-2
卫星全名:
--
卫星状态:
在轨 (已飞行933 天)
发射日期:
2023-05-25 UTC
国别 :
韩国 (KR)
星等 :
--
轨道信息
数据来源 国际轨道数据
星历时间: 2025-12-13T07:49:55+0800
10小时前
查看轨道信息
半长轴: 6869.506km
偏心率: 0.0005194
轨道倾角: 97.529°
近地点辐角 330.414°
升交点赤经 177.548°
平近点角 29.680°
近地点: 487.802km
远地点: 494.94km
周期: 94.438分钟
每日圈数: 15.248057
详细信息
使用方式:
暂无
2D轨道图
3D轨道图
轨道高度分析图
轨道倾角分析图
轨道综合分析图
查看轨道综合分析图